Location: *
(51.4660°N, 0.3360°W)
Time: 08:33:42
(UTC+00:00)

SJ 16-02 - Pass Details

Date: 19 September 2019
Orbit: 606 x 617 km, 75.0° (Epoch: 21 October)

Event Time Altitude Azimuth Distance (km) Brightness Sun altitude
Rises 23:25:51 0° 346° (NNW) 2,901 5.8 -36.9°
Reaches altitude 10° 23:29:26 10° 16° (NNE) 1,989 4.6 -37.0°
Enters shadow 23:30:12 12° 26° (NNE) 1,884 4.3 -37.0°
